This demonstration page uses our WeatherBlox Daily Observations layout. Learn more.

Left ArrowRight Arrow

39.08367, -84.50855

Hourly Observations for February 25, 2016

Temp ( °F °C ) Dew Point ( °F °C ) Humidity (%) Winds ( mph kmh ) Pressure ( in mb ) Visibility ( mi km ) Precip ( " mm )
12:53 am 00:53 Cloudy with Light Rain 36 2 N/A N/A W 18 30 29.53 1000 5 8 N/A
1:08 am 01:08 Cloudy with Light Rain 36 2 N/A N/A W 12 19 29.56 1001 7 11 N/A
1:16 am 01:16 Cloudy 36 2 N/A N/A W 14 22 29.59 1002 10 16 N/A
1:53 am 01:53 Cloudy 36 2 N/A N/A W 16 26 29.57 1001 10 16 N/A
2:26 am 02:26 Cloudy 34 1 N/A N/A WNW 8 13 29.62 1003 10 16 N/A
2:46 am 02:46 Cloudy 36 2 N/A N/A W 12 19 29.62 1003 10 16 N/A
2:53 am 02:53 Cloudy 36 2 N/A N/A WNW 10 17 29.59 1002 10 16 N/A
3:32 am 03:32 Cloudy 34 1 N/A N/A WNW 15 24 29.65 1004 10 16 N/A
3:53 am 03:53 Cloudy 34 1 N/A N/A WNW 14 22 29.63 1003 10 16 N/A
4:53 am 04:53 Cloudy with Light Snow 34 1 N/A N/A W 15 24 29.64 1004 5 8 N/A
5:53 am 05:53 Cloudy with Light Snow 34 1 N/A N/A W 17 28 29.67 1005 7 11 N/A
6:53 am 06:53 Cloudy with Light Snow 34 1.1 33 0.6 97 97 W 13 20 29.70 1006 5 8 N/A
7:53 am 07:53 Cloudy with Light Snow 34 1.1 33 0.6 97 97 W 14 22 29.73 1007 4 6 N/A
8:53 am 08:53 Cloudy with Light Snow 34 1.1 33 0.6 97 97 W 16 26 29.78 1008 4 6 0.01 0.25
9:53 am 09:53 Cloudy with Mist and Fog 35 1.7 33 0.6 93 93 W 20 31 29.80 1009 4 6 N/A
10:53 am 10:53 Cloudy with Light Snow 35 1.7 33 0.6 93 93 W 15 24 29.84 1011 4 6 N/A
11:53 am 11:53 Cloudy 36 2.2 33 0.6 89 89 W 16 26 29.86 1011 8 13 N/A
12:53 pm 12:53 Cloudy with Light Rain 37 2.8 34 1.1 89 89 W 17 28 29.88 1012 7 11 N/A
1:23 pm 13:23 Cloudy with Light Rain 37 2.8 34 1.1 89 89 W 18 30 29.91 1013 10 16 N/A
1:53 pm 13:53 Cloudy 37 2.8 34 1.1 89 89 WNW 17 28 29.90 1013 10 16 N/A
2:00 pm 14:00 Cloudy 37 3 34 1 87 87 W 17 28 29.94 1014 10 16 N/A
2:53 pm 14:53 Cloudy with Light Rain 37 2.8 34 1.1 89 89 W 18 30 29.93 1014 10 16 N/A
3:25 pm 15:25 Cloudy 38 3.3 34 1.1 86 86 W 15 24 29.94 1014 10 16 N/A
3:53 pm 15:53 Cloudy 37 2.8 32 undefined 82 82 WNW 16 26 29.96 1015 10 16 N/A
4:21 pm 16:21 Cloudy 36 2.2 32 undefined 86 86 W 21 33 29.97 1015 10 16 N/A
4:53 pm 16:53 Cloudy with Light Snow 36 2.2 31 -0.6 82 82 WNW 16 26 30.00 1016 6 10 N/A
5:53 pm 17:53 Cloudy 36 2.2 30 -1.1 79 79 NW 13 20 30.03 1017 10 16 N/A
6:03 pm 18:03 Cloudy 36 2 28 -2 75 75 VRB 6 9 30.03 1017 10 16 N/A
6:21 pm 18:21 Cloudy 36 2.2 30 -1.1 79 79 NW 10 17 30.03 1017 10 16 N/A
6:53 pm 18:53 Cloudy 35 1.7 27 -2.8 72 72 WNW 8 13 30.07 1018 10 16 N/A
7:53 pm 19:53 Cloudy 35 1.7 27 -2.8 72 72 NW 12 19 30.09 1019 10 16 N/A
8:16 pm 20:16 Cloudy 34 1 25 -4 70 70 NW 13 20 30.09 1019 10 16 N/A
8:53 pm 20:53 Cloudy 34 1.1 22 -5.6 61 61 NW 12 19 30.12 1020 10 16 N/A
9:53 pm 21:53 Cloudy 34 1.1 22 -5.6 61 61 NW 10 17 30.13 1020 10 16 N/A
10:53 pm 22:53 Cloudy 34 1.1 23 -5 64 64 WNW 9 15 30.14 1021 10 16 N/A
11:53 pm 23:53 Cloudy 33 0.6 25 -3.9 72 72 VRB 6 9 30.14 1021 10 16 N/A

Powered by AerisWeather